Location: Gro� Glienicke
(52.4675°N, 13.1079°E)
Time: 19:07:20
(UTC+00:00)

Helios 1A - Pass Details

Date: 06 July 2020
Orbit: 587 x 600 km, 98.2° (Epoch: 07 August)

Event Time Altitude Azimuth Distance (km) Brightness Sun altitude
Exits shadow 21:57:34 12° 119° (ESE) 1,770 5.0 -13.2°
Maximum altitude 22:00:44 29° 63° (ENE) 1,107 4.4 -13.4°
Drops below altitude 10° 22:04:19 10° 4° (N) 1,929 6.8 -13.5°
Sets 22:06:41 0° 353° (N) 2,836 8.3 -13.6°
